Time,TemperatureF,DewpointF,PressureIn,WindDirection,WindDirectionDegrees,WindSpeedMPH,WindSpeedGustMPH,Humidity,HourlyPrecipIn,Conditions,Clouds,dailyrainin,SolarRadiationWatts/m^2,SoftwareType,DateUTC
2013-04-04 00:03:00,21.0,8.0,-100.00,North,352,4.0,9.0,56,0.00,,,0.00,0.000000,,2013-04-04 04:03:00,
2013-04-04 00:34:00,20.0,8.0,-100.00,North,351,2.0,9.0,60,0.00,,,0.00,0.000000,,2013-04-04 04:34:00,
2013-04-04 00:43:00,20.0,8.0,-100.00,North,351,2.0,9.0,60,0.00,,,0.00,0.000000,,2013-04-04 04:43:00,
2013-04-04 00:53:00,20.0,8.0,-100.00,North,351,2.0,9.0,60,0.00,,,0.00,0.000000,,2013-04-04 04:53:00,
2013-04-04 01:02:00,20.0,8.0,-100.00,North,351,2.0,9.0,60,0.00,,,0.00,0.000000,,2013-04-04 05:02:00,
2013-04-04 01:32:00,18.0,9.0,-100.00,SSW,202,2.0,6.0,67,0.00,,,0.00,0.000000,,2013-04-04 05:32:00,
2013-04-04 01:42:00,18.0,9.0,-100.00,SSW,202,2.0,6.0,67,0.00,,,0.00,0.000000,,2013-04-04 05:42:00,
2013-04-04 01:53:00,18.0,9.0,-100.00,SSW,202,2.0,6.0,67,0.00,,,0.00,0.000000,,2013-04-04 05:53:00,
2013-04-04 02:03:00,18.0,9.0,-100.00,SSW,202,2.0,6.0,67,0.00,,,0.00,0.000000,,2013-04-04 06:03:00,
2013-04-04 02:33:00,18.0,9.0,-100.00,WSW,256,3.0,6.0,67,0.00,,,0.00,0.000000,,2013-04-04 06:33:00,
2013-04-04 02:43:00,18.0,9.0,-100.00,WSW,256,3.0,6.0,67,0.00,,,0.00,0.000000,,2013-04-04 06:43:00,
2013-04-04 02:53:00,18.0,9.0,-100.00,WSW,256,3.0,6.0,67,0.00,,,0.00,0.000000,,2013-04-04 06:53:00,
2013-04-04 03:02:00,18.0,9.0,-100.00,WSW,256,3.0,6.0,67,0.00,,,0.00,0.000000,,2013-04-04 07:02:00,
2013-04-04 03:32:00,17.0,9.0,-100.00,West,268,3.0,5.0,70,0.00,,,0.00,0.000000,,2013-04-04 07:32:00,
2013-04-04 03:43:00,17.0,9.0,-100.00,West,268,3.0,5.0,70,0.00,,,0.00,0.000000,,2013-04-04 07:43:00,
2013-04-04 03:53:00,17.0,9.0,-100.00,West,268,3.0,5.0,70,0.00,,,0.00,0.000000,,2013-04-04 07:53:00,
2013-04-04 04:03:00,17.0,9.0,-100.00,West,268,3.0,5.0,70,0.00,,,0.00,0.000000,,2013-04-04 08:03:00,
2013-04-04 04:32:00,16.0,8.0,-100.00,NNW,341,2.0,7.0,71,0.00,,,0.00,0.000000,,2013-04-04 08:32:00,
2013-04-04 04:44:00,16.0,8.0,-100.00,NNW,341,2.0,7.0,71,0.00,,,0.00,0.000000,,2013-04-04 08:44:00,
2013-04-04 04:53:00,16.0,8.0,-100.00,NNW,341,2.0,7.0,71,0.00,,,0.00,0.000000,,2013-04-04 08:53:00,
2013-04-04 05:03:00,16.0,8.0,-100.00,NNW,341,2.0,7.0,71,0.00,,,0.00,0.000000,,2013-04-04 09:03:00,
2013-04-04 05:34:00,17.0,10.0,-100.00,NNW,327,3.0,5.0,74,0.00,,,0.00,0.000000,,2013-04-04 09:34:00,
2013-04-04 05:44:00,17.0,10.0,-100.00,NNW,327,3.0,5.0,74,0.00,,,0.00,0.000000,,2013-04-04 09:44:00,
2013-04-04 05:54:00,17.0,10.0,-100.00,NNW,327,3.0,5.0,74,0.00,,,0.00,0.000000,,2013-04-04 09:54:00,
2013-04-04 06:04:00,17.0,10.0,-100.00,NNW,327,3.0,5.0,74,0.00,,,0.00,0.000000,,2013-04-04 10:04:00,
2013-04-04 06:34:00,14.0,8.0,-100.00,SW,228,2.0,4.0,75,0.00,,,0.00,0.000000,,2013-04-04 10:34:00,
2013-04-04 06:43:00,14.0,8.0,-100.00,SW,228,2.0,4.0,75,0.00,,,0.00,0.000000,,2013-04-04 10:43:00,
2013-04-04 06:54:00,14.0,8.0,-100.00,SW,228,2.0,4.0,75,0.00,,,0.00,0.000000,,2013-04-04 10:54:00,
2013-04-04 07:03:00,14.0,8.0,-100.00,SW,228,2.0,4.0,75,0.00,,,0.00,0.000000,,2013-04-04 11:03:00,
2013-04-04 07:33:00,19.0,11.0,-100.00,WNW,284,2.0,6.0,71,0.00,,,0.00,5.000000,,2013-04-04 11:33:00,
2013-04-04 07:43:00,19.0,11.0,-100.00,WNW,284,2.0,6.0,71,0.00,,,0.00,5.000000,,2013-04-04 11:43:00,
2013-04-04 07:55:00,19.0,11.0,-100.00,WNW,284,2.0,6.0,71,0.00,,,0.00,5.000000,,2013-04-04 11:55:00,
2013-04-04 08:03:00,19.0,11.0,-100.00,WNW,284,2.0,6.0,71,0.00,,,0.00,5.000000,,2013-04-04 12:03:00,
2013-04-04 08:33:00,23.0,12.0,-100.00,South,187,2.0,4.0,62,0.00,,,0.00,128.000000,,2013-04-04 12:33:00,
2013-04-04 08:44:00,23.0,12.0,-100.00,South,187,2.0,4.0,62,0.00,,,0.00,128.000000,,2013-04-04 12:44:00,
2013-04-04 08:53:00,23.0,12.0,-100.00,South,187,2.0,4.0,62,0.00,,,0.00,128.000000,,2013-04-04 12:53:00,
2013-04-04 09:03:00,23.0,12.0,-100.00,South,187,2.0,4.0,62,0.00,,,0.00,128.000000,,2013-04-04 13:03:00,
2013-04-04 09:33:00,30.0,11.0,-100.00,SSW,196,3.0,5.0,45,0.00,,,0.00,326.000000,,2013-04-04 13:33:00,
2013-04-04 09:43:00,30.0,11.0,-100.00,SSW,196,3.0,5.0,45,0.00,,,0.00,326.000000,,2013-04-04 13:43:00,
2013-04-04 09:53:00,30.0,11.0,-100.00,SSW,196,3.0,5.0,45,0.00,,,0.00,326.000000,,2013-04-04 13:53:00,
2013-04-04 10:03:00,30.0,11.0,-100.00,SSW,196,3.0,5.0,45,0.00,,,0.00,326.000000,,2013-04-04 14:03:00,
2013-04-04 10:33:00,32.0,9.0,-100.00,SSE,160,6.0,9.0,38,0.00,,,0.00,517.000000,,2013-04-04 14:33:00,
2013-04-04 10:43:00,32.0,9.0,-100.00,SSE,160,6.0,9.0,38,0.00,,,0.00,517.000000,,2013-04-04 14:43:00,
2013-04-04 10:53:00,32.0,9.0,-100.00,SSE,160,6.0,9.0,38,0.00,,,0.00,517.000000,,2013-04-04 14:53:00,
2013-04-04 11:03:00,32.0,9.0,-100.00,SSE,160,6.0,9.0,38,0.00,,,0.00,517.000000,,2013-04-04 15:03:00,
2013-04-04 11:34:00,36.0,4.0,-100.00,SSE,155,7.0,12.0,26,0.00,,,0.00,648.000000,,2013-04-04 15:34:00,
2013-04-04 11:43:00,36.0,4.0,-100.00,SSE,155,7.0,12.0,26,0.00,,,0.00,648.000000,,2013-04-04 15:43:00,
2013-04-04 11:54:00,36.0,4.0,-100.00,SSE,155,7.0,12.0,26,0.00,,,0.00,648.000000,,2013-04-04 15:54:00,
2013-04-04 12:03:00,36.0,4.0,-100.00,SSE,155,7.0,12.0,26,0.00,,,0.00,648.000000,,2013-04-04 16:03:00,
2013-04-04 12:33:00,39.0,7.0,-100.00,South,180,11.0,15.0,26,0.00,,,0.00,743.000000,,2013-04-04 16:33:00,
2013-04-04 12:43:00,39.0,7.0,-100.00,South,180,11.0,15.0,26,0.00,,,0.00,743.000000,,2013-04-04 16:43:00,
2013-04-04 12:55:00,39.0,7.0,-100.00,South,180,11.0,15.0,26,0.00,,,0.00,743.000000,,2013-04-04 16:55:00,
2013-04-04 13:03:00,39.0,7.0,-100.00,South,180,11.0,15.0,26,0.00,,,0.00,743.000000,,2013-04-04 17:03:00,
2013-04-04 13:33:00,45.0,7.0,-100.00,South,174,8.0,16.0,21,0.00,,,0.00,838.000000,,2013-04-04 17:33:00,
2013-04-04 13:43:00,45.0,7.0,-100.00,South,174,8.0,16.0,21,0.00,,,0.00,838.000000,,2013-04-04 17:43:00,
2013-04-04 13:53:00,45.0,7.0,-100.00,South,174,8.0,16.0,21,0.00,,,0.00,838.000000,,2013-04-04 17:53:00,
2013-04-04 14:02:00,45.0,7.0,-100.00,South,174,8.0,16.0,21,0.00,,,0.00,838.000000,,2013-04-04 18:02:00,
2013-04-04 14:33:00,46.0,2.0,-100.00,SSE,151,9.0,15.0,16,0.00,,,0.00,754.000000,,2013-04-04 18:33:00,
2013-04-04 14:43:00,46.0,2.0,-100.00,SSE,151,9.0,15.0,16,0.00,,,0.00,754.000000,,2013-04-04 18:43:00,
2013-04-04 14:53:00,46.0,2.0,-100.00,SSE,151,9.0,15.0,16,0.00,,,0.00,754.000000,,2013-04-04 18:53:00,
2013-04-04 15:02:00,46.0,2.0,-100.00,SSE,151,9.0,15.0,16,0.00,,,0.00,754.000000,,2013-04-04 19:02:00,
2013-04-04 15:33:00,49.0,0.0,-100.00,SSW,198,9.0,14.0,13,0.00,,,0.00,710.000000,,2013-04-04 19:33:00,
2013-04-04 15:43:00,49.0,0.0,-100.00,SSW,198,9.0,14.0,13,0.00,,,0.00,710.000000,,2013-04-04 19:43:00,
2013-04-04 15:53:00,49.0,0.0,-100.00,SSW,198,9.0,14.0,13,0.00,,,0.00,710.000000,,2013-04-04 19:53:00,
2013-04-04 16:04:00,49.0,0.0,-100.00,SSW,198,9.0,14.0,13,0.00,,,0.00,710.000000,,2013-04-04 20:04:00,
2013-04-04 16:33:00,48.0,3.0,-100.00,SSW,197,9.0,17.0,15,0.00,,,0.00,562.000000,,2013-04-04 20:33:00,
2013-04-04 16:42:00,48.0,3.0,-100.00,SSW,197,9.0,17.0,15,0.00,,,0.00,562.000000,,2013-04-04 20:42:00,
2013-04-04 16:53:00,48.0,3.0,-100.00,SSW,197,9.0,17.0,15,0.00,,,0.00,562.000000,,2013-04-04 20:53:00,
2013-04-04 17:02:00,48.0,3.0,-100.00,SSW,197,9.0,17.0,15,0.00,,,0.00,562.000000,,2013-04-04 21:02:00,
2013-04-04 17:33:00,47.0,3.0,-100.00,South,182,8.0,16.0,16,0.00,,,0.00,334.000000,,2013-04-04 21:33:00,
2013-04-04 17:43:00,47.0,3.0,-100.00,South,182,8.0,16.0,16,0.00,,,0.00,334.000000,,2013-04-04 21:43:00,
2013-04-04 17:53:00,47.0,3.0,-100.00,South,182,8.0,16.0,16,0.00,,,0.00,334.000000,,2013-04-04 21:53:00,
2013-04-04 18:04:00,47.0,3.0,-100.00,South,182,8.0,16.0,16,0.00,,,0.00,334.000000,,2013-04-04 22:04:00,
2013-04-04 18:43:00,45.0,-1.0,-100.00,SSW,196,8.0,16.0,14,0.00,,,0.00,204.000000,,2013-04-04 22:43:00,
2013-04-04 18:53:00,45.0,-1.0,-100.00,SSW,196,8.0,16.0,14,0.00,,,0.00,204.000000,,2013-04-04 22:53:00,
2013-04-04 19:03:00,45.0,-1.0,-100.00,SSW,196,8.0,16.0,14,0.00,,,0.00,204.000000,,2013-04-04 23:03:00,
2013-04-04 19:32:00,42.0,-1.0,-100.00,SSW,200,9.0,15.0,16,0.00,,,0.00,77.000000,,2013-04-04 23:32:00,
2013-04-04 19:43:00,42.0,-1.0,-100.00,SSW,200,9.0,15.0,16,0.00,,,0.00,77.000000,,2013-04-04 23:43:00,
2013-04-04 19:53:00,42.0,-1.0,-100.00,SSW,200,9.0,15.0,16,0.00,,,0.00,77.000000,,2013-04-04 23:53:00,
2013-04-04 20:02:00,42.0,-1.0,-100.00,SSW,200,9.0,15.0,16,0.00,,,0.00,77.000000,,2013-04-05 00:02:00,
2013-04-04 20:33:00,39.0,3.0,-100.00,SSW,192,7.0,16.0,22,0.00,,,0.00,8.000000,,2013-04-05 00:33:00,
2013-04-04 20:43:00,39.0,3.0,-100.00,SSW,192,7.0,16.0,22,0.00,,,0.00,8.000000,,2013-04-05 00:43:00,
2013-04-04 20:52:00,39.0,3.0,-100.00,SSW,192,7.0,16.0,22,0.00,,,0.00,8.000000,,2013-04-05 00:52:00,
2013-04-04 21:02:00,39.0,3.0,-100.00,SSW,192,7.0,16.0,22,0.00,,,0.00,8.000000,,2013-04-05 01:02:00,
2013-04-04 21:32:00,37.0,4.0,-100.00,South,184,8.0,14.0,24,0.00,,,0.00,0.000000,,2013-04-05 01:32:00,
2013-04-04 21:42:00,37.0,4.0,-100.00,South,184,8.0,14.0,24,0.00,,,0.00,0.000000,,2013-04-05 01:42:00,
2013-04-04 21:54:00,37.0,4.0,-100.00,South,184,8.0,14.0,24,0.00,,,0.00,0.000000,,2013-04-05 01:54:00,
2013-04-04 22:03:00,37.0,4.0,-100.00,South,184,8.0,14.0,24,0.00,,,0.00,0.000000,,2013-04-05 02:03:00,
2013-04-04 22:32:00,36.0,5.0,-100.00,South,186,7.0,12.0,27,0.00,,,0.00,0.000000,,2013-04-05 02:32:00,
2013-04-04 22:42:00,36.0,5.0,-100.00,South,186,7.0,12.0,27,0.00,,,0.00,0.000000,,2013-04-05 02:42:00,
2013-04-04 22:52:00,36.0,5.0,-100.00,South,186,7.0,12.0,27,0.00,,,0.00,0.000000,,2013-04-05 02:52:00,
2013-04-04 23:02:00,36.0,5.0,-100.00,South,186,7.0,12.0,27,0.00,,,0.00,0.000000,,2013-04-05 03:02:00,
2013-04-04 23:33:00,35.0,6.0,-100.00,South,189,7.0,12.0,29,0.00,,,0.00,0.000000,,2013-04-05 03:33:00,
2013-04-04 23:43:00,35.0,6.0,-100.00,South,189,7.0,12.0,29,0.00,,,0.00,0.000000,,2013-04-05 03:43:00,
2013-04-04 23:55:00,35.0,6.0,-100.00,South,189,7.0,12.0,29,0.00,,,0.00,0.000000,,2013-04-05 03:55:00,